Home   Weather   Cairns   Past weeks

Flag for Australia Past Weather in Cairns, Queensland, Australia — Yesterday and Last 2 Weeks

Now
79 °F

Sprinkles. Partly cloudy.


Feels Like: 83 °F
Forecast: 78 / 88 °F
Wind: 9 mph from South

Location: Cairns Airport

Current Time: Feb 24, 2017 at 12:13:23 am

Latest Report: Feb 23, 2017 at 11:30 pm


Visibility: 4 mi

Pressure: 29.89 "Hg

Humidity: 94%

Dew Point: 77 °F

Location of CairnsLocation

Past Weather in Cairns — Graph

°F

Cairns Temperature Yesterday

Maximum temperature yesterday: 90 °F (at 12:00 pm)
Minimum temperature yesterday: 75 °F (at 4:30 am)
Average temperature yesterday: 82 °F

High & Low Weather Summary for the Past Weeks

 TemperatureHumidityPressure
High95 °F (Feb 13, 12:00 pm)100% (Feb 16, 8:00 pm)29.95 "Hg (Feb 16, 8:00 pm)
Low73 °F (Feb 22, 2:30 am)47% (Feb 14, 12:30 pm)29.62 "Hg (Feb 13, 4:30 pm)
Average83 °F78%29.80 "Hg
* Reported Feb 8 11:00 pm — Feb 23 11:00 pm, Cairns, Weather by CustomWeather, © 2017

Note: Actual official high and low records may vary slightly from our data, if they occured in-between our weather recording intervals... More about our weather records

Advertising

Cairns Weather History for the Previous 24 Hours

Scroll right to see more
 ConditionsComfort  
Time TempWeatherWind HumidityBarometerVisibility
11:00 pm
Thu, Feb 23
79 °FSprinkles. Passing clouds.12 mph89%29.92 "Hg5 mi
10:30 pm79 °FPassing clouds.9 mph89%29.92 "HgN/A
10:00 pm81 °FPassing clouds.8 mph84%29.89 "HgN/A
9:30 pm79 °FPassing clouds.10 mph89%29.92 "HgN/A
9:00 pm81 °FScattered showers. Partly cloudy.9 mph84%29.92 "HgN/A
8:30 pm79 °FScattered showers. Passing clouds.12 mph84%29.89 "HgN/A
8:00 pm82 °FScattered showers. Passing clouds.9 mph74%29.89 "HgN/A
7:30 pm82 °FPassing clouds.12 mph79%29.86 "HgN/A
7:00 pm82 °FPassing clouds.9 mph74%29.86 "HgN/A
6:30 pm84 °FPassing clouds.13 mph70%29.86 "HgN/A
6:00 pm86 °FPassing clouds.16 mph66%29.83 "HgN/A
5:30 pm86 °FPassing clouds.18 mph66%29.83 "HgN/A
5:00 pm86 °FPassing clouds.20 mph66%29.83 "HgN/A
4:30 pm88 °FPassing clouds.14 mph66%29.83 "HgN/A
4:00 pm88 °FPassing clouds.15 mph62%29.83 "HgN/A
3:30 pm90 °FPassing clouds.16 mph59%29.83 "HgN/A
3:00 pm90 °FPassing clouds.14 mph59%29.83 "HgN/A
2:00 pm90 °FPassing clouds.13 mph59%29.86 "HgN/A
1:30 pm88 °FPassing clouds.13 mph62%29.86 "HgN/A
1:00 pm90 °FPassing clouds.12 mph59%29.86 "HgN/A
12:30 pm90 °FPassing clouds.12 mph59%29.89 "HgN/A
12:00 pm90 °FPassing clouds.14 mph63%29.89 "HgN/A
11:30 am88 °FPassing clouds.14 mph62%29.89 "HgN/A
11:00 am88 °FPassing clouds.14 mph66%29.92 "HgN/A
10:30 am88 °FPassing clouds.14 mph66%29.92 "HgN/A
10:00 am86 °FPassing clouds.10 mph70%29.92 "HgN/A
9:30 am86 °FPassing clouds.10 mph75%29.92 "HgN/A
9:00 am82 °FPassing clouds.8 mph79%29.92 "HgN/A
8:30 am82 °FPassing clouds.7 mph79%29.92 "HgN/A
8:00 am79 °FPassing clouds.8 mph89%29.92 "HgN/A
7:30 am77 °FScattered showers. Broken clouds.8 mph94%29.92 "HgN/A
7:00 am77 °FScattered clouds.8 mph94%29.89 "HgN/A
6:30 am77 °FPassing clouds.6 mph89%29.89 "HgN/A
6:00 am77 °FScattered showers. Passing clouds.3 mph94%29.89 "HgN/A
5:30 am77 °FSprinkles. Partly cloudy.5 mph94%29.89 "HgN/A
5:00 am75 °FSprinkles. Partly cloudy.9 mph100%29.89 "HgN/A
4:52 am77 °FSprinkles. Partly cloudy.7 mph94%29.89 "Hg4 mi
4:30 am75 °FSprinkles. Passing clouds.3 mph100%29.89 "HgN/A
4:00 am77 °FSprinkles. Partly cloudy.8 mph94%29.86 "Hg5 mi
3:30 am77 °FScattered showers. Passing clouds.6 mph89%29.86 "HgN/A
3:00 am77 °FScattered showers. Passing clouds.5 mph89%29.86 "HgN/A
2:30 am79 °FPassing clouds.6 mph84%29.86 "HgN/A
2:00 am79 °FPassing clouds.10 mph79%29.89 "HgN/A
1:30 am79 °FPassing clouds.8 mph89%29.89 "HgN/A
1:00 am79 °FPassing clouds.6 mph89%29.92 "HgN/A
12:30 am79 °FPassing clouds.7 mph89%29.92 "HgN/A
12:00 am79 °FPassing clouds.No wind89%29.92 "HgN/A
Weather by CustomWeather, © 2017

See weather overviewHow to use our weather pages